This is the latest recevied weather packets stored in our database for station/object KG5WBN. If no packets are shown the sender has not sent any weather packets the latest 10 day(s).
| Time | Temp. | Humidity | Pressure | Rain* | Wind** | Luminosity | Snow |
|---|---|---|---|---|---|---|---|
| 1777744472 | 22.78° C | 40% | 1015.2 hPa | 0 mm | - | 364 W/m² | - |
| 1777744169 | 22.22° C | 40% | 1015.2 hPa | 0 mm | - | 182 W/m² | - |
| 1777743866 | 22.78° C | 40% | 1015.2 hPa | 0 mm | - | 350 W/m² | - |
| 1777743562 | 22.22° C | 40% | 1015.2 hPa | 0 mm | - | 335 W/m² | - |
| 1777743259 | 22.78° C | 41% | 1015.6 hPa | 0 mm | - | 335 W/m² | - |
| 1777742958 | 22.22° C | 41% | 1015.6 hPa | 0 mm | - | 365 W/m² | - |
| 1777742655 | 22.22° C | 42% | 1015.9 hPa | 0 mm | - | 354 W/m² | - |
| 1777742350 | 22.78° C | 41% | 1015.9 hPa | 0 mm | - | 289 W/m² | - |
| 1777742046 | 21.67° C | 42% | 1015.9 hPa | 0 mm | - | 290 W/m² | - |
| 1777741744 | 22.22° C | 41% | 1016.3 hPa | 0 mm | - | 329 W/m² | - |
| 1777741441 | 22.22° C | 42% | 1015.9 hPa | 0 mm | - | 324 W/m² | - |
| 1777741136 | 21.67° C | 43% | 1016.3 hPa | 0 mm | - | 321 W/m² | - |
| 1777740833 | 21.67° C | 44% | 1015.9 hPa | 0 mm | - | 301 W/m² | - |
| 1777740530 | 21.67° C | 43% | 1015.9 hPa | 0 mm | - | 318 W/m² | - |
| 1777740228 | 21.11° C | 44% | 1015.9 hPa | 0 mm | - | 314 W/m² | - |
| 1777739924 | 21.11° C | 45% | 1015.9 hPa | 0 mm | - | 312 W/m² | - |
| 1777739620 | 20.56° C | 46% | 1015.9 hPa | 0 mm | - | 312 W/m² | - |
| 1777739318 | 21.67° C | 45% | 1015.9 hPa | 0 mm | - | 310 W/m² | - |
| 1777739014 | 21.11° C | 46% | 1015.9 hPa | 0 mm | - | 303 W/m² | - |
| 1777738711 | 21.11° C | 48% | 1015.9 hPa | 0 mm | - | 301 W/m² | - |
| 1777738407 | 20.56° C | 49% | 1015.9 hPa | 0 mm | - | 304 W/m² | - |
| 1777738105 | 20.56° C | 51% | 1015.9 hPa | 0 mm | - | 305 W/m² | - |
| 1777737798 | 20.56° C | 53% | 1015.9 hPa | 0 mm | - | 321 W/m² | - |
| 1777737497 | 21.11° C | 54% | 1015.9 hPa | 0 mm | - | 324 W/m² | - |
| 1777737194 | 20° C | 61% | 1015.9 hPa | 0 mm | - | 303 W/m² | - |
* Rain latest hour (hover to see other rain measurements)
** Current wind speed in m/s (hover to see current wind gust speed)